Regional Weather Roundup
Issued by NWS

Home | Current Version | Previous Version | Text Only | Print | Product List | Glossary Off
Versions: 1 2 3 4 5 6 7 8 9 10 11 12 13 14 15 16 17 18 19 20 21 22 23 24 25 26 27

000
ASUS45 KBOU 240307
RWRCO

WEATHER ROUNDUP FOR COLORADO
NATIONAL WEATHER SERVICE DENVER/BOULDER CO
900 PM MDT TUE MAY 23 2017

NOTE: "FAIR" INDICATES FEW OR NO CLOUDS BELOW 12000 FEET WITH NO
SIGNIFICANT WEATHER AND/OR OBSTRUCTIONS TO VISIBILITY.

COZ001>005-013-030-031-240400-
...NORTHWEST COLORADO...

CITY           SKY/WX    TMP DP  RH WIND       PRES   REMARKS
CRAIG          FAIR      49  35  58 CALM      30.14F
HAYDEN         FAIR      52  30  43 S5        30.16S
MEEKER         FAIR      50  35  56 NE5       30.16S
RABBIT EARS PA FAIR      32  32 100 W10G17    30.32S WCI  24
STEAMBOAT SPGS FAIR      50  34  53 CALM      30.17F
WALDEN           N/A     41  30  65 SW7       30.22F
$$

COZ006>008-011-240400-
...WEST CENTRAL VALLEYS...

CITY           SKY/WX    TMP DP  RH WIND       PRES   REMARKS
GRAND JUNCTION FAIR      63  28  26 E7        30.06S
MONTROSE       FAIR      61  28  28 S6        30.14S
EAGLE          FAIR      53  29  39 E6        30.20R
RIFLE          FAIR      59  27  29 CALM      30.12S
DELTA          FAIR      67  24  19 W5        30.09F
NUCLA          FAIR      63  30  29 CALM      30.17S
$$

COZ017>023-064>068-240400-
...SOUTHWEST COLORADO...

CITY           SKY/WX    TMP DP  RH WIND       PRES   REMARKS
DURANGO        FAIR      58  13  17 NW12      30.12R
CORTEZ         FAIR      59  28  30 N5        30.13S
PAGOSA SPRINGS FAIR      55  10  16 NE5       30.17S
TELLURIDE      FAIR      48  16  27 CALM      30.32S
WOLF CREEK PAS FAIR      34  10  37 NW12G20   30.41S WCI  25
$$

COZ009-010-012-014-032>034-037-058>063-240400-
...CENTRAL COLORADO...

CITY           SKY/WX    TMP DP  RH WIND       PRES   REMARKS
ASPEN          FAIR      50  20  30 W7        30.22R
BUENA VISTA    FAIR      51  18  27 NW13G23   30.19S
COPPER MTN     FAIR      34  23  64 NW13G20   30.37S WCI  25
BERTHOUD PASS  FAIR      23  12  63 NW28G37   30.34R WCI   6
COTTONWOOD PAS FAIR      46  12  25 W12G24    30.26S
GUNNISON       FAIR      50  19  29 NW5       30.21R
KREMMLING      FAIR      46  32  57 CALM      30.22S
LEADVILLE      FAIR      37  20  50 N10       30.27S
MONARCH PASS   FAIR      34  12  40 NW12      30.47S WCI  25
SALIDA         FAIR      53  21  29 S5        30.25R
SUNLIGHT       FAIR      34  21  60 W6        30.39F WCI  29
WILKERSON PASS FAIR      32  21  64 NW12G18   30.33S WCI  23
$$

COZ069>075-240400-
...SAN LUIS VALLEY/SANGRE DE CRISTO MOUNTAINS...

CITY           SKY/WX    TMP DP  RH WIND       PRES   REMARKS
ALAMOSA        FAIR      54  24  31 N6        30.15R
DEL NORTE      FAIR      52  18  26 W10G16    30.20R
LA VETA PASS   FAIR      34  27  75 N3        30.38S
SAGUACHE       FAIR      52  18  25 NW9G20    30.18R
$$

COZ035-036-038>040-240400-
...NORTHERN COLORADO FRONT RANGE...

CITY           SKY/WX    TMP DP  RH WIND       PRES   REMARKS
DENVER INTL AP FAIR      51  35  54 E6        30.10S
DMNS CITY PARK   N/A     55  32  42 NE3       30.11R
AURORA         PTCLDY    51  34  52 E5        30.11S
FRONT RANGE AP NOT AVBL
ERIE MUNI ARPT FAIR      54  38  56 NE6       30.10R
BOULDER MUN AP MOCLDY    55  34  44 CALM      30.10R
CENTENNIAL     FAIR      53  33  46 E5        30.11S
BROOMFIELD     PTCLDY    55  32  41 NE7       30.11S
FORT COLLINS   FAIR      54  35  48 NE3       30.09R
LONGMONT       CLOUDY    57  38  48 CALM      30.12R
$$

COZ041-046-047-076>085-087-088-240400-
...PIKES PEAK/PALMER DIVIDE AND SOUTHERN FOOTHILLS...

CITY           SKY/WX    TMP DP  RH WIND       PRES   REMARKS
COLO. SPRINGS  FAIR      53  32  44 NW5       30.13R
A. F. ACADEMY  FAIR      47  32  56 N5        30.14R
SCHRIEVER AFB  FAIR      51  30  44 N14       30.13S
CHEYENNE MTN   FAIR      49  30  48 NW8       30.11R
ELLICOTT       FAIR     N/A N/A N/A NE6       30.11S
FALCON         FAIR      47  30  53 NW3       30.16S
FORT CARSON    FAIR      55  31  39 W8        30.11S
LIMON          FAIR      39  33  79 N5        30.09S
MONUMENT HILL  FAIR      41  32  70 N5        30.17S
CANON CITY     NOT AVBL
WALSENBURG     FAIR      48  39  71 CALM      30.14R
TRINIDAD       FAIR      51  33  50 S5        30.13S
$$

COZ042>045-048>051-090-091-240400-
...NORTHEAST COLORADO...

CITY           SKY/WX    TMP DP  RH WIND       PRES   REMARKS
GREELEY ARPT   FAIR      54  37  52 NE7       30.08R
AKRON          FAIR      43  32  65 N7        30.05S
BURLINGTON     FAIR      48  38  68 N7        30.04S
WRAY           FAIR      46  36  66 N6        30.03S
YUMA           FAIR      46  28  49 N6        30.04S
STERLING       FAIR      50  37  62 N5        30.03S
HOLYOKE        NOT AVBL
FORT MORGAN    FAIR      46  33  60 N12       30.06F
$$

COZ086-089-092>099-240400-
...SOUTHEAST COLORADO...

CITY           SKY/WX    TMP DP  RH WIND       PRES   REMARKS
PUEBLO         FAIR      58  37  45 E5        30.07S
LA JUNTA       FAIR      55  36  48 CALM      30.07R
LAMAR          FAIR      52  37  56 CALM      30.02S
SPRINGFIELD      N/A     47  35  63 NW8       30.06S
$$




USA.gov is the U.S. government's official web portal to all federal, state and local government web resources and services.